Flag for Canada Weather past 2 weeks in Saanich, British Columbia, Canada

Now
34 °F

Passing clouds.


Feels Like: 27 °F
Forecast: 41 / 46 °F
Wind: 8 mph from West

Location: Victoria Int. Airportb. C.

Current Time: Dec 25, 2014 at 6:24:20 AM

Latest Report: Dec 25, 2014 at 6:00 AM


Visibility: 30 mi

Pressure: 30.12 "Hg

Humidity: 100%

Dew point: 34 °F

Location of SaanichLocation

Historic Weather in Saanich — Graph

°F

Saanich temperature yesterday

Maximum temperature yesterday: 48 °F (at 2:00 PM)
Minimum temperature yesterday: 37 °F (at 5:00 PM)
Average temperature yesterday: 42 °F

Past Weeks' High & Low Weather Summary

 TemperatureHumidityPressure
High55 °F (Dec 10, 8:00 AM)100% (Dec 10, 2:00 PM)30.38 "Hg (Dec 10, 2:00 PM)
Low30 °F (Dec 15, 2:00 AM)62% (Dec 21, 5:00 PM)29.10 "Hg (Dec 11, 8:00 PM)
Average45 °F87%29.84 "Hg
* Reported Dec 10 5:00 AM — Dec 25 5:00 AM, Saanich, Weather by CustomWeather, © 2014

Note: Actual official high and low records may vary slightly from our data, if they occured in-between our weather recording intervals... More about our weather records

Advertising

Saanich weather history for previous 24 hours

 ConditionsComfort  
Time TempWeatherWind HumidityBarometerVisibility
5:00 AM
Dec 25
36 °FPassing clouds.7 mph93%30.11 "Hg30 mi
4:00 AM36 °FPassing clouds.7 mph93%30.11 "Hg30 mi
3:00 AM36 °FPassing clouds.8 mph93%30.09 "Hg30 mi
2:00 AM37 °FPassing clouds.7 mph93%30.08 "Hg30 mi
1:00 AM37 °FPassing clouds.7 mph93%30.06 "Hg30 mi
12:00 AM37 °FPassing clouds.5 mph93%30.04 "Hg30 mi
11:00 PM
Dec 24
37 °FPassing clouds.8 mph93%30.03 "Hg30 mi
10:00 PM37 °FPassing clouds.2 mph93%30.02 "Hg30 mi
9:00 PM39 °FPartly cloudy.2 mph93%30.01 "Hg30 mi
8:00 PM41 °FPassing clouds.3 mph87%29.99 "Hg30 mi
7:00 PM39 °FPassing clouds.7 mph93%29.97 "Hg30 mi
6:00 PM39 °FPassing clouds.2 mph93%29.95 "Hg30 mi
5:00 PM37 °FPassing clouds.5 mph93%29.94 "Hg30 mi
4:00 PM41 °FPassing clouds.5 mph87%29.93 "Hg30 mi
3:00 PM48 °FPassing clouds.3 mph66%29.91 "Hg30 mi
2:00 PM48 °FPassing clouds.7 mph66%29.90 "Hg30 mi
1:00 PM46 °FPassing clouds.9 mph71%29.89 "Hg30 mi
12:00 PM46 °FPassing clouds.8 mph71%29.88 "Hg30 mi
11:00 AM45 °FPassing clouds.12 mph76%29.90 "Hg30 mi
10:00 AM43 °FPassing clouds.10 mph87%29.90 "Hg30 mi
9:00 AM41 °FPassing clouds.8 mph87%29.89 "Hg30 mi
8:00 AM41 °FPartly cloudy.5 mph87%29.88 "Hg30 mi
7:00 AM41 °FMostly cloudy.3 mph87%29.88 "Hg30 mi
6:00 AM39 °FOvercast.3 mph93%29.87 "Hg30 mi
Weather by CustomWeather, © 2014

See weather overviewHow to use our weather pages